QLK1844 YBBN-YBRK

Flight info

Callsign QLK1844
Flight time N/A
Altitude 32000
Route BN Q67 LOAFA Q64 OLDIB V308 RK
Aircraft E190/M-SDE3GILORVW/S

Departure

Time 2026-05-04 00:03
Airport Brisbane International Airport (YBBN)

Arrival

Time N/A
Airport Rockhampton Airport (YBRK)
Time Latitude Longitude Altitude Speed Heading
2026-05-03 23:34 -27.38243 153.12181 20 ft 0 kts 192°
2026-05-03 23:50 -27.38241 153.12181 20 ft 2 kts 192°
2026-05-03 23:50 -27.38212 153.12189 20 ft 3 kts 192°
2026-05-03 23:50 -27.38186 153.12193 21 ft 4 kts 175°
2026-05-03 23:51 -27.38162 153.12184 20 ft 4 kts 131°
2026-05-03 23:51 -27.38163 153.12191 21 ft 4 kts 113°
2026-05-03 23:51 -27.38167 153.12200 22 ft 0 kts 117°
2026-05-03 23:54 -27.38169 153.12205 20 ft 1 kts 117°
2026-05-03 23:54 -27.38178 153.12223 20 ft 4 kts 117°
2026-05-03 23:54 -27.38194 153.12259 21 ft 6 kts 117°
2026-05-03 23:55 -27.38211 153.12314 20 ft 9 kts 103°
2026-05-03 23:55 -27.38234 153.12373 21 ft 9 kts 118°
2026-05-03 23:55 -27.38266 153.12441 20 ft 11 kts 117°
2026-05-03 23:55 -27.38304 153.12524 20 ft 13 kts 115°
2026-05-03 23:56 -27.38273 153.12605 22 ft 14 kts 28°
2026-05-03 23:56 -27.38182 153.12656 21 ft 16 kts 27°
2026-05-03 23:56 -27.38077 153.12716 20 ft 18 kts 27°
2026-05-03 23:56 -27.37952 153.12758 20 ft 20 kts 332°
2026-05-03 23:57 -27.37882 153.12619 20 ft 22 kts 297°
2026-05-03 23:57 -27.37811 153.12461 20 ft 23 kts 300°
2026-05-03 23:57 -27.37733 153.12291 20 ft 26 kts 297°
2026-05-03 23:57 -27.37648 153.12104 20 ft 28 kts 297°
2026-05-03 23:58 -27.37557 153.11903 21 ft 30 kts 297°
2026-05-03 23:58 -27.37459 153.11689 20 ft 32 kts 297°
2026-05-03 23:58 -27.37352 153.11552 20 ft 21 kts
2026-05-03 23:58 -27.37222 153.11628 20 ft 22 kts 27°
2026-05-03 23:59 -27.37076 153.11711 21 ft 25 kts 27°
2026-05-03 23:59 -27.36917 153.11802 21 ft 27 kts 27°
2026-05-03 23:59 -27.36746 153.11901 21 ft 29 kts 27°
2026-05-03 23:59 -27.36562 153.12006 20 ft 31 kts 27°
2026-05-04 00:00 -27.36367 153.12117 20 ft 32 kts 27°
2026-05-04 00:00 -27.36163 153.12235 20 ft 34 kts 27°
2026-05-04 00:00 -27.35949 153.12360 20 ft 35 kts 26°
2026-05-04 00:00 -27.35818 153.12351 21 ft 17 kts 325°
2026-05-04 00:01 -27.35753 153.12299 20 ft 10 kts 325°
2026-05-04 00:01 -27.35699 153.12250 20 ft 10 kts 309°
2026-05-04 00:01 -27.35687 153.12182 20 ft 6 kts 231°
2026-05-04 00:01 -27.35721 153.12159 23 ft 6 kts 207°
2026-05-04 00:02 -27.35756 153.12139 22 ft 8 kts 207°
2026-05-04 00:02 -27.36009 153.11995 23 ft 75 kts 207°
2026-05-04 00:02 -27.36678 153.11613 20 ft 139 kts 207°
2026-05-04 00:02 -27.37674 153.11057 207 ft 178 kts 204°
2026-05-04 00:03 -27.38806 153.10454 893 ft 181 kts 204°
2026-05-04 00:03 -27.39960 153.09842 1627 ft 181 kts 205°
2026-05-04 00:03 -27.41200 153.09166 2102 ft 214 kts 204°
2026-05-04 00:03 -27.42603 153.08426 2725 ft 228 kts 202°
2026-05-04 00:04 -27.44119 153.07673 3246 ft 251 kts 205°
2026-05-04 00:04 -27.45585 153.06493 3776 ft 271 kts 229°
2026-05-04 00:04 -27.46499 153.04616 4561 ft 277 kts 249°
2026-05-04 00:04 -27.47106 153.02535 5361 ft 282 kts 254°
2026-05-04 00:05 -27.47483 153.00397 6181 ft 283 kts 264°
2026-05-04 00:05 -27.47693 152.98182 6956 ft 286 kts 267°
2026-05-04 00:05 -27.47424 152.95991 7687 ft 285 kts 294°
2026-05-04 00:05 -27.46363 152.94119 8432 ft 285 kts 311°
2026-05-04 00:06 -27.44984 152.92518 9190 ft 286 kts 319°
2026-05-04 00:06 -27.43264 152.91416 9903 ft 289 kts 345°
2026-05-04 00:06 -27.41221 152.91341 10256 ft 306 kts 11°
2026-05-04 00:06 -27.39268 152.92398 10650 ft 320 kts 39°
2026-05-04 00:07 -27.37873 152.94315 11279 ft 325 kts 57°
2026-05-04 00:07 -27.36739 152.96542 11895 ft 330 kts 60°
2026-05-04 00:07 -27.35637 152.98837 12401 ft 340 kts 60°
2026-05-04 00:07 -27.34459 153.01230 12589 ft 358 kts 56°